User: anonymous
Location: Trois-Rivi�res
(46.3500°N, 72.5500°W)
Time: 15:58:14
(UTC-04:00)
Language:

Cosmos 1975 - Orbit

View from above orbital plane
View from above orbital plane
View from above satellite
View from above satellite

Ground track
Ground track

The orbit data is extracted from the following two-line orbital elements,

1 19573U 88093A   14203.77557423  .00000444  00000-0  32977-4 0  2552
2 19573 082.5236 289.4284 0014238 304.0042 055.9829 15.00509235400531
Epoch (UTC): 22 July 2014 18:36:49
Eccentricity: 0.0014238
inclination: 82.5236°
perigee height: 555 km
apogee height: 575 km
right ascension of ascending node: 289.4284°
argument of perigee: 304.0042°
revolutions per day: 15.00509235
mean anomaly at epoch: 55.9829°
orbit number at epoch: 40053

The dashed part of the orbit path shows where the satellite is in the earth's shadow,  

DLR